TimeCDT,TemperatureF,Dew PointF,Humidity,Sea Level PressureIn,VisibilityMPH,Wind Direction,Wind SpeedMPH,Gust SpeedMPH,PrecipitationIn,Events,Conditions,WindDirDegrees,DateUTC
12:52 AM,72.0,63.0,73,29.78,-9999.0,South,13.8,19.6,N/A,,Unknown,180,2013-08-31 05:52:00
1:52 AM,71.1,63.0,75,29.79,-9999.0,SSW,9.2,-,N/A,,Unknown,200,2013-08-31 06:52:00
2:52 AM,70.0,60.1,71,29.78,-9999.0,SSW,8.1,-,N/A,,Unknown,200,2013-08-31 07:52:00
3:52 AM,70.0,61.0,73,29.77,-9999.0,SW,5.8,-,N/A,,Unknown,220,2013-08-31 08:52:00
4:52 AM,66.9,62.1,84,29.76,-9999.0,SW,4.6,-,N/A,,Unknown,220,2013-08-31 09:52:00
5:52 AM,64.9,62.1,90,29.77,-9999.0,Calm,Calm,-,N/A,,Unknown,0,2013-08-31 10:52:00
6:52 AM,64.0,62.1,93,29.78,-9999.0,WSW,3.5,-,N/A,,Unknown,240,2013-08-31 11:52:00
7:52 AM,64.9,64.0,97,29.79,-9999.0,Calm,Calm,-,N/A,,Unknown,0,2013-08-31 12:52:00
8:52 AM,69.1,64.9,87,29.81,-9999.0,WNW,12.7,-,N/A,,Unknown,290,2013-08-31 13:52:00
9:52 AM,69.1,63.0,81,29.79,-9999.0,NW,11.5,26.5,0.01,,Unknown,320,2013-08-31 14:52:00
10:52 AM,66.0,59.0,78,29.85,-9999.0,WNW,15.0,21.9,0.03,,Unknown,300,2013-08-31 15:52:00
11:52 AM,71.1,55.9,59,29.83,-9999.0,WNW,25.3,35.7,N/A,,Unknown,300,2013-08-31 16:52:00
12:52 PM,73.9,57.9,57,29.84,-9999.0,NW,20.7,28.8,N/A,,Unknown,310,2013-08-31 17:52:00
1:52 PM,75.9,57.0,52,29.85,-9999.0,NW,21.9,33.4,N/A,,Unknown,320,2013-08-31 18:52:00
2:52 PM,77.0,54.0,45,29.86,-9999.0,NNW,23.0,32.2,N/A,,Unknown,330,2013-08-31 19:52:00
3:52 PM,77.0,52.0,42,29.87,-9999.0,NW,15.0,33.4,N/A,,Unknown,310,2013-08-31 20:52:00
4:52 PM,75.9,51.1,42,29.87,-9999.0,NW,16.1,31.1,N/A,,Unknown,310,2013-08-31 21:52:00
5:52 PM,75.0,52.0,44,29.87,-9999.0,NW,18.4,23.0,N/A,,Unknown,320,2013-08-31 22:52:00
6:52 PM,73.9,52.0,46,29.88,-9999.0,NW,13.8,31.1,N/A,,Unknown,320,2013-08-31 23:52:00
7:52 PM,70.0,53.1,55,29.90,-9999.0,NNW,13.8,-,N/A,,Unknown,330,2013-09-01 00:52:00
8:52 PM,66.0,54.0,65,29.93,-9999.0,NNW,10.4,-,N/A,,Unknown,330,2013-09-01 01:52:00
9:52 PM,60.1,55.0,83,29.95,-9999.0,NW,5.8,-,N/A,,Unknown,310,2013-09-01 02:52:00
10:52 PM,59.0,54.0,83,29.96,-9999.0,WNW,5.8,-,N/A,,Unknown,290,2013-09-01 03:52:00
11:52 PM,57.0,54.0,89,29.97,-9999.0,NNW,6.9,-,N/A,,Unknown,330,2013-09-01 04:52:00